Time,TemperatureF,DewpointF,PressureIn,WindDirection,WindDirectionDegrees,WindSpeedMPH,WindSpeedGustMPH,Humidity,HourlyPrecipIn,Conditions,Clouds,dailyrainin,SoftwareType,DateUTC
2013-07-05 04:20:00,71.4,68.0,0.00,North,0,0.0,0.0,89,0.00,,,0.00,WUHU21623XXSP,2013-07-05 08:20:00,
2013-07-05 04:25:00,71.4,68.0,0.00,North,0,0.0,0.0,89,0.00,,,0.00,WUHU21623XXSP,2013-07-05 08:25:00,
2013-07-05 04:30:00,71.2,68.0,0.00,North,0,0.0,0.0,89,0.00,,,0.00,WUHU21623XXSP,2013-07-05 08:30:00,
2013-07-05 04:35:00,71.2,67.8,0.00,North,0,0.0,0.0,89,0.00,,,0.00,WUHU21623XXSP,2013-07-05 08:35:00,
2013-07-05 04:40:00,71.2,67.8,0.00,North,0,0.0,0.0,89,0.00,,,0.00,WUHU21623XXSP,2013-07-05 08:40:00,
2013-07-05 04:45:00,71.2,67.8,0.00,North,0,0.0,0.0,89,0.00,,,0.00,WUHU21623XXSP,2013-07-05 08:45:00,
2013-07-05 04:50:00,71.2,67.8,0.00,North,0,0.0,0.0,89,0.00,,,0.00,WUHU21623XXSP,2013-07-05 08:50:00,
2013-07-05 04:55:00,71.2,67.8,0.00,North,0,0.0,0.0,89,0.00,,,0.00,WUHU21623XXSP,2013-07-05 08:55:00,
2013-07-05 05:24:00,70.9,67.5,0.00,North,0,0.0,0.0,89,0.00,,,0.00,WUHU21623XXSP,2013-07-05 09:24:00,
2013-07-05 05:29:00,70.9,67.5,0.00,North,0,0.0,0.0,89,0.00,,,0.00,WUHU21623XXSP,2013-07-05 09:29:00,
2013-07-05 05:34:00,70.9,67.5,0.00,North,0,0.0,0.0,89,0.00,,,0.00,WUHU21623XXSP,2013-07-05 09:34:00,
2013-07-05 05:40:00,70.9,67.5,0.00,North,0,0.0,0.0,89,0.00,,,0.00,WUHU21623XXSP,2013-07-05 09:40:00,
2013-07-05 05:45:00,70.9,67.5,0.00,North,0,0.0,0.0,89,0.00,,,0.00,WUHU21623XXSP,2013-07-05 09:45:00,
2013-07-05 05:50:00,70.7,67.3,0.00,North,0,0.0,0.0,89,0.00,,,0.00,WUHU21623XXSP,2013-07-05 09:50:00,
2013-07-05 05:55:00,70.7,67.3,0.00,North,0,0.0,0.0,89,0.00,,,0.00,WUHU21623XXSP,2013-07-05 09:55:00,
2013-07-05 06:00:00,70.7,67.1,0.00,North,0,0.0,0.0,89,0.00,,,0.00,WUHU21623XXSP,2013-07-05 10:00:00,
2013-07-05 06:05:00,70.5,67.1,0.00,North,0,0.0,0.0,89,0.00,,,0.00,WUHU21623XXSP,2013-07-05 10:05:00,
2013-07-05 06:11:00,70.5,67.1,0.00,North,0,0.0,0.0,89,0.00,,,0.00,WUHU21623XXSP,2013-07-05 10:11:00,
2013-07-05 06:16:00,70.5,67.1,0.00,North,0,0.0,0.0,89,0.00,,,0.00,WUHU21623XXSP,2013-07-05 10:16:00,
2013-07-05 06:21:00,70.5,67.1,0.00,North,0,0.0,0.0,89,0.00,,,0.00,WUHU21623XXSP,2013-07-05 10:21:00,
2013-07-05 06:26:00,70.5,67.1,0.00,North,0,0.0,0.0,89,0.00,,,0.00,WUHU21623XXSP,2013-07-05 10:26:00,
2013-07-05 06:31:00,70.5,67.1,0.00,North,0,0.0,0.0,89,0.00,,,0.00,WUHU21623XXSP,2013-07-05 10:31:00,
2013-07-05 06:36:00,70.5,67.1,0.00,North,0,0.0,0.0,89,0.00,,,0.00,WUHU21623XXSP,2013-07-05 10:36:00,
2013-07-05 06:41:00,70.5,67.1,0.00,North,0,0.0,0.0,89,0.00,,,0.00,WUHU21623XXSP,2013-07-05 10:41:00,
2013-07-05 06:47:00,70.7,67.3,0.00,North,0,0.0,0.0,89,0.00,,,0.00,WUHU21623XXSP,2013-07-05 10:47:00,
2013-07-05 06:52:00,70.9,67.3,0.00,North,0,0.0,0.0,89,0.00,,,0.00,WUHU21623XXSP,2013-07-05 10:52:00,
2013-07-05 06:57:00,70.9,67.3,0.00,North,0,0.0,0.0,89,0.00,,,0.00,WUHU21623XXSP,2013-07-05 10:57:00,
2013-07-05 07:02:00,70.9,67.5,0.00,North,0,0.0,0.0,89,0.00,,,0.00,WUHU21623XXSP,2013-07-05 11:02:00,
2013-07-05 07:07:00,70.9,67.5,0.00,North,0,0.0,0.0,89,0.00,,,0.00,WUHU21623XXSP,2013-07-05 11:07:00,
2013-07-05 07:12:00,70.9,67.5,0.00,North,0,0.0,0.0,89,0.00,,,0.00,WUHU21623XXSP,2013-07-05 11:12:00,
2013-07-05 07:17:00,71.2,67.7,0.00,North,0,0.0,0.0,89,0.00,,,0.00,WUHU21623XXSP,2013-07-05 11:17:00,
2013-07-05 07:22:00,71.2,67.8,0.00,North,0,0.0,0.0,89,0.00,,,0.00,WUHU21623XXSP,2013-07-05 11:22:00,
2013-07-05 07:27:00,71.2,67.8,0.00,North,0,0.0,0.0,89,0.00,,,0.00,WUHU21623XXSP,2013-07-05 11:27:00,
2013-07-05 07:32:00,71.2,67.8,0.00,North,0,0.0,0.0,89,0.00,,,0.00,WUHU21623XXSP,2013-07-05 11:32:00,
2013-07-05 07:37:00,71.2,67.8,0.00,North,0,0.0,0.0,89,0.00,,,0.00,WUHU21623XXSP,2013-07-05 11:37:00,
2013-07-05 07:42:00,71.2,67.8,0.00,North,0,0.0,0.0,89,0.00,,,0.00,WUHU21623XXSP,2013-07-05 11:42:00,
2013-07-05 07:47:00,71.2,67.8,0.00,North,0,0.0,0.0,89,0.00,,,0.00,WUHU21623XXSP,2013-07-05 11:47:00,
2013-07-05 07:52:00,71.2,67.8,0.00,North,0,0.0,0.0,89,0.00,,,0.00,WUHU21623XXSP,2013-07-05 11:52:00,
2013-07-05 09:56:00,74.5,71.1,0.00,North,0,0.0,0.0,89,0.00,,,0.00,WUHU21623XXSP,2013-07-05 13:56:00,
2013-07-05 10:01:00,74.5,71.1,0.00,North,0,0.0,0.0,89,0.00,,,0.00,WUHU21623XXSP,2013-07-05 14:01:00,
2013-07-05 10:06:00,74.5,71.1,0.00,North,0,0.0,0.0,89,0.00,,,0.00,WUHU21623XXSP,2013-07-05 14:06:00,
2013-07-05 10:11:00,74.8,71.4,0.00,North,0,0.0,0.0,89,0.00,,,0.00,WUHU21623XXSP,2013-07-05 14:11:00,
2013-07-05 10:16:00,74.8,71.4,0.00,North,0,0.0,0.0,89,0.00,,,0.00,WUHU21623XXSP,2013-07-05 14:16:00,
2013-07-05 10:21:00,74.8,71.4,0.00,North,0,0.0,0.0,89,0.00,,,0.00,WUHU21623XXSP,2013-07-05 14:21:00,
2013-07-05 10:33:00,76.1,72.7,0.00,North,0,0.0,0.0,89,0.00,,,0.00,WUHU21623XXSP,2013-07-05 14:33:00,
2013-07-05 10:42:00,76.1,72.7,0.00,North,0,0.0,0.0,89,0.00,,,0.00,WUHU21623XXSP,2013-07-05 14:42:00,
2013-07-05 10:47:00,76.1,72.7,0.00,North,0,0.0,0.0,89,0.00,,,0.00,WUHU21623XXSP,2013-07-05 14:47:00,
2013-07-05 10:52:00,76.1,72.7,0.00,North,0,0.0,0.0,89,0.00,,,0.00,WUHU21623XXSP,2013-07-05 14:52:00,
2013-07-05 13:02:00,79.0,74.1,0.00,North,0,0.0,0.0,86,0.00,,,0.00,WUHU21623XXSP,2013-07-05 17:02:00,
2013-07-05 13:07:00,79.0,74.5,0.00,North,0,0.0,0.0,86,0.00,,,0.00,WUHU21623XXSP,2013-07-05 17:07:00,
2013-07-05 13:12:00,79.0,74.5,0.00,North,0,0.0,0.0,86,0.00,,,0.00,WUHU21623XXSP,2013-07-05 17:12:00,
2013-07-05 13:17:00,79.0,74.5,0.00,North,0,0.0,0.0,86,0.00,,,0.00,WUHU21623XXSP,2013-07-05 17:17:00,
2013-07-05 13:22:00,79.0,74.5,0.00,North,0,0.0,0.0,86,0.00,,,0.00,WUHU21623XXSP,2013-07-05 17:22:00,
2013-07-05 13:27:00,79.0,74.5,0.00,North,0,0.0,0.0,86,0.00,,,0.00,WUHU21623XXSP,2013-07-05 17:27:00,
2013-07-05 19:28:00,79.3,74.4,0.00,North,0,0.0,0.0,85,0.00,,,0.00,WUHU21623XXSP,2013-07-05 23:28:00,
2013-07-05 19:33:00,79.3,74.4,0.00,North,0,0.0,0.0,85,0.00,,,0.00,WUHU21623XXSP,2013-07-05 23:33:00,
2013-07-05 19:38:00,79.3,74.4,0.00,North,0,0.0,0.0,85,0.00,,,0.00,WUHU21623XXSP,2013-07-05 23:38:00,
2013-07-05 19:43:00,79.3,74.4,0.00,North,0,0.0,0.0,85,0.00,,,0.00,WUHU21623XXSP,2013-07-05 23:43:00,
2013-07-05 19:48:00,79.3,74.4,0.00,North,0,0.0,0.0,85,0.00,,,0.00,WUHU21623XXSP,2013-07-05 23:48:00,
2013-07-05 19:58:00,78.6,73.8,0.00,North,0,0.0,0.0,85,0.00,,,0.00,WUHU21623XXSP,2013-07-05 23:58:00,
2013-07-05 20:03:00,78.6,73.8,0.00,North,0,0.0,0.0,85,0.00,,,0.00,WUHU21623XXSP,2013-07-06 00:03:00,
2013-07-05 20:08:00,78.6,73.8,0.00,North,0,0.0,0.0,85,0.00,,,0.00,WUHU21623XXSP,2013-07-06 00:08:00,
2013-07-05 20:13:00,78.6,73.8,0.00,North,0,0.0,0.0,85,0.00,,,0.00,WUHU21623XXSP,2013-07-06 00:13:00,
2013-07-05 20:43:00,78.4,73.9,0.00,North,0,0.0,0.0,86,0.00,,,0.00,WUHU21623XXSP,2013-07-06 00:43:00,
2013-07-05 20:48:00,78.4,73.9,0.00,North,0,0.0,0.0,86,0.00,,,0.00,WUHU21623XXSP,2013-07-06 00:48:00,
2013-07-05 20:53:00,78.4,73.9,0.00,North,0,0.0,0.0,86,0.00,,,0.00,WUHU21623XXSP,2013-07-06 00:53:00,
2013-07-05 20:58:00,77.9,73.6,0.00,North,0,0.0,0.0,86,0.00,,,0.00,WUHU21623XXSP,2013-07-06 00:58:00,
2013-07-05 21:03:00,77.9,73.4,0.00,North,0,0.0,0.0,86,0.00,,,0.00,WUHU21623XXSP,2013-07-06 01:03:00,
2013-07-05 21:08:00,77.7,73.2,0.00,North,0,0.0,0.0,86,0.00,,,0.00,WUHU21623XXSP,2013-07-06 01:08:00,
2013-07-05 21:13:00,77.7,73.2,0.00,North,0,0.0,0.0,86,0.00,,,0.00,WUHU21623XXSP,2013-07-06 01:13:00,
2013-07-05 21:18:00,77.7,73.2,0.00,North,0,0.0,0.0,86,0.00,,,0.00,WUHU21623XXSP,2013-07-06 01:18:00,
2013-07-05 21:23:00,77.7,73.2,0.00,North,0,0.0,0.0,86,0.00,,,0.00,WUHU21623XXSP,2013-07-06 01:23:00,
2013-07-05 21:28:00,77.7,73.2,0.00,North,0,0.0,0.0,86,0.00,,,0.00,WUHU21623XXSP,2013-07-06 01:28:00,